Regional Weather Roundup
Issued by NWS Portland, ME

Home | Current Version | Previous Version | Text Only | Print | Product List | Glossary On
Versions: 1 2 3 4 5 6 7 8 9 10 11 12 13 14 15 16 17 18 19 20 21 22 23 24 25 26 27 28 29 30 31 32 33 34 35 36 37 38 39 40 41 42 43 44 45 46 47 48 49 50
000
ASUS41 KGYX 280210
RWRGYX
WEATHER ROUNDUP FOR MAINE AND NEW HAMPSHIRE
NATIONAL WEATHER SERVICE GRAY ME
1000 PM EDT TUE JUN 27 2017

MEZ002-005-006-010-012-015-018-020-021-024-026-027-029-280300-
MAINE

CITY           SKY/WX    TMP DP  RH WIND       PRES   REMARKS
PORTLAND       RAIN      58  56  93 VRB6      29.95R FOG
SANFORD        CLOUDY    56  55  97 S5        29.92F
BAR HARBOR     CLOUDY    59  57  93 S6        29.96R
WISCASSET      LGT RAIN  59  57  93 VRB3      29.95R
ROCKLAND       LGT RAIN  58  56  93 SW6       29.94S
FRYEBURG       CLOUDY    57  57 100 CALM      29.93F
LEWISTONAUBURN LGT RAIN  57  55  93 S5        29.95R
AUGUSTA        CLOUDY    58  56  93 SW3       29.94R
WATERVILLE     CLOUDY    59  57  94 CALM      29.91R
BANGOR         LGT RAIN  59  57  93 S5        29.93F FOG
GREENVILLE       N/A     54  54 100 CALM      29.90S
MILLINOCKET    CLOUDY    56  56 100 CALM      29.94F
HOULTON        HVY RAIN  56  56 100 W8        29.96R FOG
PRESQUE ISLE   LGT RAIN  55  54  96 S7        29.93S
FRENCHVILLE    CLOUDY    54  53  97 SE10      29.90S
CARIBOU        CLOUDY    57  54  89 SE3       29.91S
$$

NHZ002-005-008-009-011-012-014-280300-
NEW HAMPSHIRE

CITY           SKY/WX    TMP DP  RH WIND       PRES   REMARKS
PORTSMOUTH     MOCLDY    56  53  88 CALM      29.93F
ROCHESTER      CLOUDY    56  54  93 CALM      29.93F
NASHUA         CLOUDY    57  55  93 SE3         N/A
MANCHESTER     CLOUDY    58  55  90 S7        29.94R
CONCORD        FOG       53  52  96 CALM      29.94S VSB 1
LACONIA        CLOUDY   N/A N/A N/A W3        29.93S
PLYMOUTH       FAIR      55  53  94 CALM      29.94R
BERLIN         RAIN      56  52  86 VRB3      29.95R FOG
WHITEFIELD     MOCLDY    53  50  89 CALM      29.94R
JAFFREY        CLEAR     55  54  96 S3        29.98R
KEENE          CLEAR     53  52  96 S5        29.98R
LEBANON        CLEAR     54  51  90 S3        29.94R
MT WASHINGTON  FOG       37  37 100 W24         N/A  VSB 0
$$

VTZ005-007-008-280300-
VERMONT

CITY           SKY/WX    TMP DP  RH WIND       PRES   REMARKS
ST JOHNSBURY     N/A     53  53 100 MISG      29.92R
MONTPELIER     CLOUDY    52  51  97 SE5       29.98R
BURLINGTON     CLOUDY    56  54  93 S6        29.93R
$$

MAZ007-012-024-CTZ003-RIZ002-NYZ038-NYZ072-280300-
SOUTHERN NEW ENGLAND AND NY

CITY           SKY/WX    TMP DP  RH WIND       PRES   REMARKS
BOSTON         LGT RAIN  61  55  81 SW6       29.95S
WORCESTER      CLEAR     54  51  90 W9        29.98R
NANTUCKET      CLEAR     63  62  97 S7        29.97R
PROVIDENCE     CLOUDY    64  52  64 NW6       29.97S
HARTFORD       PTCLDY    61  48  62 W6        29.98R
ALBANY         PTCLDY    56  51  84 CALM      29.97R
NEW YORK CITY  MOCLDY    73  49  42 NW13G21   29.96R
$$

ANZ081-ANZ082-ANZ150-NHZ014-MEZ023>029-280300-
COASTAL MARINE OBSERVATIONS

STATION/POSITION TIME  TEMP    WIND        PRES    WAVE
                       AIR SEA DIR/SP/G            HT/PER
                 (UTC) (F)     (DEG/KT/KT) (MB)    (FT/S)
MATINICUS ROCK   0200   55     180/  9/ 10 1014.0R
ISLE OF SHOALS   0200   58        CALM     1014.2R
JEFFREYS LEDGE   0106      58                N/A     2/ 5
CASHES LEDGE BUO 0150   62 62              1014.1F   2/ 5
GEORGES BANK BUO 0050   59 57              1014.7    2/ 8
$$

.............KEY..............
   WCI - WIND CHILL
   TC  - TEMPERATURE IN CELSIUS
   VSB - VISIBILITY IN MILES
   HX  - HEAT INDEX
   FAIR- INDICATES FEW OR NO CLOUDS BELOW 12,000 FT, WITH NO
         SIGNIFICANT WEATHER AND/OR OBSTRUCTIONS TO VISIBILITY.






USA.gov is the U.S. government's official web portal to all federal, state and local government web resources and services.